Flag for U.S.A. Weather past 2 weeks in Pittsburgh, Pennsylvania, U.S.A.

Now
68 °F

Fog.


Feels Like: 68 °F
Forecast: 67 / 80 °F
Wind: 6 mph from South

Location: Allegheny County Airport

Current Time: Aug 22, 2014 at 6:10:07 AM

Latest Report: Aug 22, 2014 at 4:53 AM


Visibility: 2 mi

Pressure: 29.98 "Hg

Humidity: 93%

Dew point: 66 °F

Location of PittsburghLocation

Historic Weather in Pittsburgh — Graph

°F

Pittsburgh temperature yesterday

Maximum temperature yesterday: 77 °F (at 1:53 PM)
Minimum temperature yesterday: 64 °F (at 4:53 AM)
Average temperature yesterday: 71 °F

Past Weeks' High & Low Weather Summary

 TemperatureHumidityPressure
High84 °F (Aug 19, 3:53 PM)100% (Aug 12, 5:00 AM)30.16 "Hg (Aug 12, 5:00 AM)
Low48 °F (Aug 16, 6:01 AM)32% (Aug 14, 4:53 PM)29.71 "Hg (Aug 12, 3:53 PM)
Average69 °F70%29.98 "Hg
* Reported Aug 7 4:53 AM — Aug 22 4:53 AM, Pittsburgh, Weather by CustomWeather, © 2014

Note: Actual official high and low records may vary slightly from our data, if they occured in-between our weather recording intervals... More about our weather records

Advertising

Pittsburgh weather history for previous 24 hours

 ConditionsComfort  
Time TempWeatherWind HumidityBarometerVisibility
4:53 AM
Aug 22
68 °FFog.6 mph93%29.98 "Hg2 mi
3:53 AM68 °FFog.3 mph93%29.98 "Hg2 mi
2:53 AM68 °FFog.6 mph93%30.01 "Hg3 mi
2:00 AM68 °FFog.3 mph94%30.03 "Hg4 mi
1:00 AM68 °FFog.6 mph88%30.04 "Hg4 mi
11:53 PM
Aug 21
69 °FClear.6 mph87%30.04 "Hg7 mi
10:53 PM70 °FPassing clouds.5 mph87%30.05 "Hg8 mi
10:01 PM72 °FMostly cloudy.7 mph78%30.05 "Hg9 mi
8:53 PM71 °FPassing clouds.9 mph81%30.02 "Hg10 mi
7:53 PM73 °FScattered clouds.12 mph76%30.02 "Hg8 mi
6:53 PM74 °FPassing clouds.15 mph76%30.02 "Hg8 mi
5:53 PM75 °FPartly sunny.9 mph71%30.02 "Hg10 mi
4:53 PM75 °FPartly sunny.8 mph71%30.02 "Hg10 mi
3:53 PM76 °FScattered clouds.15 mph74%30.02 "Hg7 mi
2:53 PM77 °FCloudy.12 mph69%30.04 "Hg10 mi
1:53 PM77 °FPartly sunny.7 mph77%30.04 "Hg6 mi
12:53 PM75 °FPartly sunny.10 mph76%30.06 "Hg6 mi
11:53 AM73 °FOvercast.9 mph79%30.06 "Hg6 mi
11:00 AM73 °FOvercast.7 mph78%30.08 "Hg5 mi
9:53 AM72 °FLow clouds.7 mph84%30.05 "Hg7 mi
8:53 AM69 °FSunny.6 mph87%30.05 "Hg7 mi
8:00 AM66 °FFog.7 mph94%30.05 "Hg1 mi
6:53 AM65 °FClear.5 mph94%30.02 "Hg7 mi
Weather by CustomWeather, © 2014

See weather overviewHow to use our weather pages